Location: Boiro
(42.6475°N, 8.8834°W)
Time: 09:13:06
(UTC+01:00)

Transit 2A - Pass Details

Date: 05 December 2021
Orbit: 592 x 966 km, 66.7° (Epoch: 28 January)

Event Time Altitude Azimuth Distance (km) Brightness Sun altitude
Exits shadow 07:45:38 - 337° (NNW) 3,506 9.0 -11.6°
Reaches altitude 10° 07:49:12 10° 360° (N) 2,713 8.6 -11.0°
Maximum altitude 07:52:24 14° 30° (NNE) 2,424 8.7 -10.4°
Drops below altitude 10° 07:55:35 10° 60° (ENE) 2,692 9.4 -9.9°
Sets 07:59:34 0° 85° (E) 3,595 10.7 -9.2°
